User: anonymous   Login
Location: Unspecified
(0.0000°N, 0.0000°E)
Time: 01:04:54
(UTC+00:00)
Language:

NNS O-32 - Orbit

View from above orbital plane
View from above orbital plane
View from above satellite
View from above satellite

Ground track
Ground track

The orbit data is extracted from the following two-line orbital elements,

1 19071U 88033B   24201.54583208  .00000160  00000-0  30301-3 0  9991
2 19071  90.3152   0.6997 0189084 148.8868 255.8307 13.27837316754810
Epoch (UTC): 19 July 2024 13:05:59
Eccentricity: 0.0189084
inclination: 90.3152°
perigee height: 1012 km
apogee height: 1297 km
right ascension of ascending node: 0.6997°
argument of perigee: 148.8868°
revolutions per day: 13.27837316
mean anomaly at epoch: 255.8307°
orbit number at epoch: 75481

The dashed part of the orbit path shows where the satellite is in the earth's shadow,  

DLR